Time[GMT],significant_wave_height[m](0m),dominant_wave_period[s](0m)
2013-06-23 17:00, 0.78,4.6
2013-06-23 17:30, 0.81,4.6
2013-06-23 18:00, 0.78,4.6
2013-06-23 18:30, 0.73,4.0
2013-06-23 19:00, 0.91,4.6
2013-06-23 19:30, 0.99,4.6
2013-06-23 20:00, 1.03,4.6
2013-06-23 20:30, 0.98,4.0
2013-06-23 21:00, 1.07,4.6
2013-06-23 22:00, 0.94,4.6
2013-06-23 22:30, 0.92,4.6
2013-06-23 23:00, 1.03,4.6
2013-06-24 00:00, 0.95,5.3
2013-06-24 00:30, 1.04,4.6
2013-06-24 01:00, 1.09,5.3
2013-06-24 02:00, 1.18,5.3
2013-06-24 02:30, 1.14,5.3
2013-06-24 03:00, 1.15,5.3
2013-06-24 03:30, 1.23,5.3
2013-06-24 04:00, 1.19,5.3
2013-06-24 05:00, 1.29,6.4
2013-06-24 05:30, 1.29,6.4
2013-06-24 06:00, 1.13,5.3
2013-06-24 07:00, 1.36,6.4
2013-06-24 07:30, 1.33,6.4
2013-06-24 08:00, 1.32,6.4
2013-06-24 08:30, 1.37,6.4
2013-06-24 09:00, 1.50,5.3
2013-06-24 09:30, 1.63,6.4
2013-06-24 10:00, 1.33,6.4
2013-06-24 11:00, 1.23,6.4
2013-06-24 11:30, 1.37,6.4
2013-06-24 12:00, 1.20,6.4
2013-06-24 12:30, 1.22,6.4
2013-06-24 13:00, 1.16,6.4
2013-06-24 13:30, 1.01,6.4
2013-06-24 14:00, 1.07,6.4
2013-06-24 14:30, 1.09,5.3
2013-06-24 15:00, 1.01,5.3
2013-06-24 15:30, 1.23,6.4
2013-06-24 16:00, 1.18,5.3
2013-06-24 16:30, 1.06,6.4
2013-06-24 17:30, 1.08,5.3
2013-06-24 18:00, 1.16,6.4
2013-06-24 18:30, 1.17,5.3
2013-06-24 19:00, 1.05,6.4
2013-06-24 19:30, 1.00,6.4
2013-06-24 20:00, 0.86,5.3
2013-06-24 20:30, 0.98,5.3
2013-06-24 21:00, 0.89,5.3
2013-06-24 21:30, 0.95,5.3
2013-06-24 22:00, 0.98,5.3
2013-06-24 22:30, 0.96,5.3
2013-06-24 23:00, 0.95,5.3
2013-06-24 23:30, 0.95,5.3
2013-06-25 00:00, 0.84,4.6
2013-06-25 00:30, 0.88,5.3
2013-06-25 01:00, 0.78,5.3
2013-06-25 01:30, 0.75,8.0
2013-06-25 02:00, 0.70,4.6
2013-06-25 02:30, 0.73,4.6
2013-06-25 03:00, 0.84,5.3
2013-06-25 03:30, 0.87,5.3
2013-06-25 04:00, 0.80,5.3
2013-06-25 04:30, 0.89,5.3
2013-06-25 05:00, 0.95,5.3
2013-06-25 05:30, 0.95,5.3
2013-06-25 06:00, 0.96,5.3
2013-06-25 06:30, 0.91,3.6
2013-06-25 07:00, 0.91,4.6
2013-06-25 07:30, 0.98,3.6
2013-06-25 08:00, 0.94,5.3
2013-06-25 08:30, 0.81,3.6
2013-06-25 09:00, 0.99,8.0
2013-06-25 09:30, 0.74,5.3
2013-06-25 10:00, 0.73,5.3
2013-06-25 10:30, 0.81,5.3
2013-06-25 11:00, 0.77,4.6
2013-06-25 11:30, 0.69,4.6
2013-06-25 12:00, 0.68,4.6
2013-06-25 12:30, 0.65,4.6
2013-06-25 13:00, 0.59,4.6
2013-06-25 13:30, 0.54,5.3
2013-06-25 14:00, 0.66,4.6
2013-06-25 14:30, 0.78,8.0
2013-06-25 15:00, 0.85,4.6
2013-06-25 15:30, 0.82,5.3
2013-06-25 16:00, 0.91,5.3
2013-06-25 16:30, 0.91,6.4
2013-06-25 17:00, 0.96,5.3
2013-06-25 17:30, 0.83,6.4
2013-06-25 18:00, 0.93,8.0
2013-06-25 18:30, 0.74,5.3
2013-06-25 19:00, 0.74,8.0
2013-06-25 19:30, 0.90,8.0
2013-06-25 20:00, 0.81,6.4
2013-06-25 20:30, 0.88,8.0
2013-06-25 21:00, 0.83,8.0
2013-06-25 21:30, 0.83,8.0
2013-06-25 22:00, 0.89,8.0
2013-06-25 22:30, 0.86,8.0
2013-06-25 23:00, 0.80,8.0
2013-06-25 23:30, 0.72,6.4
2013-06-26 00:00, 0.83,6.4
2013-06-26 00:30, 0.71,6.4
2013-06-26 01:00, 0.81,6.4
2013-06-26 01:30, 0.76,6.4
2013-06-26 02:00, 0.84,6.4
2013-06-26 02:30, 0.78,6.4
2013-06-26 03:00, 0.79,6.4
2013-06-26 03:30, 0.87,6.4
2013-06-26 04:00, 0.85,8.0
2013-06-26 04:30, 0.87,6.4
2013-06-26 05:00, 0.89,6.4
2013-06-26 05:30, 0.97,6.4
2013-06-26 06:00, 0.75,6.4
2013-06-26 06:30, 0.99,6.4
2013-06-26 07:00, 0.87,6.4
2013-06-26 07:30, 0.86,6.4
2013-06-26 08:00, 0.85,6.4
2013-06-26 08:30, 0.81,6.4
2013-06-26 09:00, 0.70,6.4
2013-06-26 09:30, 0.72,8.0
2013-06-26 10:00, 0.71,6.4
2013-06-26 10:30, 0.75,6.4
2013-06-26 11:00, 0.71,6.4
2013-06-26 11:30, 0.76,8.0
2013-06-26 12:00, 0.68,8.0
2013-06-26 12:30, 0.68,6.4
2013-06-26 13:00, 0.82,6.4
2013-06-26 13:30, 0.71,6.4
2013-06-26 14:00, 0.75,6.4
2013-06-26 14:30, 0.69,6.4
2013-06-26 15:00, 0.85,6.4
2013-06-26 15:30, 0.78,5.3
2013-06-26 16:00, 0.84,6.4
2013-06-26 16:30, 0.82,6.4
2013-06-26 17:00, 0.90,5.3
2013-06-26 17:30, 0.85,6.4
2013-06-26 18:00, 0.86,6.4
2013-06-26 18:30, 0.92,8.0
2013-06-26 19:00, 1.04,6.4
2013-06-26 19:30, 1.05,8.0
2013-06-26 20:00, 1.09,6.4
2013-06-26 20:30, 1.21,6.4
2013-06-26 21:00, 1.18,5.3
2013-06-26 21:30, 1.28,4.6
2013-06-26 22:00, 1.18,4.0
2013-06-26 22:30, 1.26,4.6
2013-06-26 23:00, 1.29,4.0
2013-06-26 23:30, 1.24,4.6
2013-06-27 00:00, 1.28,5.3
2013-06-27 00:30, 1.09,4.6
2013-06-27 01:00, 0.95,5.3
2013-06-27 01:30, 1.10,5.3
2013-06-27 02:00, 1.01,5.3
2013-06-27 02:30, 0.96,5.3
2013-06-27 03:00, 1.09,5.3
2013-06-27 03:30, 1.21,6.4
2013-06-27 04:00, 1.29,6.4
2013-06-27 04:30, 1.20,5.3
2013-06-27 05:00, 1.10,6.4
2013-06-27 05:30, 1.12,6.4
2013-06-27 06:00, 1.10,6.4
2013-06-27 06:30, 1.00,5.3
2013-06-27 07:00, 1.03,6.4
2013-06-27 07:30, 0.90,6.4
2013-06-27 08:00, 0.88,5.3
2013-06-27 08:30, 0.97,6.4
2013-06-27 09:00, 1.03,6.4
2013-06-27 09:30, 0.87,8.0
2013-06-27 10:00, 0.83,8.0
2013-06-27 10:30, 0.84,6.4
2013-06-27 11:00, 0.86,5.3
2013-06-27 11:30, 0.89,5.3
2013-06-27 12:00, 0.84,8.0
2013-06-27 12:30, 0.80,6.4
2013-06-27 13:00, 0.90,6.4
2013-06-27 13:30, 0.75,6.4
2013-06-27 14:00, 0.86,6.4
2013-06-27 14:30, 0.95,6.4
2013-06-27 15:00, 0.87,6.4
2013-06-27 15:30, 0.87,5.3
2013-06-27 16:00, 0.95,6.4
2013-06-27 16:30, 1.00,6.4
2013-06-27 17:00, 1.09,6.4
2013-06-27 17:30, 1.02,6.4
2013-06-27 18:00, 0.95,8.0
2013-06-27 18:30, 1.05,6.4
2013-06-27 19:00, 1.01,8.0
2013-06-27 19:30, 0.86,8.0
2013-06-27 20:00, 0.95,8.0
2013-06-27 20:30, 0.97,8.0
2013-06-27 21:00, 0.87,8.0
2013-06-27 21:30, 0.78,8.0
2013-06-27 22:00, 0.80,8.0
2013-06-27 22:30, 0.81,8.0
2013-06-27 23:00, 0.52,3.2
2013-06-27 23:30, 0.91,8.0
2013-06-28 00:00, 0.96,8.0
2013-06-28 00:30, 0.85,6.4
2013-06-28 01:00, 0.91,6.4
2013-06-28 01:30, 0.92,4.0
2013-06-28 02:00, 0.93,8.0
2013-06-28 02:30, 1.05,8.0
2013-06-28 03:00, 1.11,4.6
2013-06-28 03:30, 1.27,6.4
2013-06-28 04:00, 1.37,4.6
2013-06-28 04:30, 1.37,5.3
2013-06-28 05:00, 1.47,5.3
2013-06-28 05:30, 1.42,5.3
2013-06-28 06:00, 1.41,4.6
2013-06-28 06:30, 1.62,4.6
2013-06-28 07:00, 1.47,4.6
2013-06-28 07:30, 1.51,4.6
2013-06-28 08:00, 1.42,4.6
2013-06-28 08:30, 1.32,5.3
2013-06-28 09:00, 1.18,4.6
2013-06-28 09:30, 1.17,4.6
2013-06-28 10:00, 1.05,5.3
2013-06-28 10:30, 0.92,4.6
2013-06-28 11:00, 1.00,8.0
2013-06-28 11:30, 0.97,5.3
2013-06-28 12:00, 0.94,5.3
2013-06-28 12:30, 1.05,8.0
2013-06-28 13:00, 0.92,5.3
2013-06-28 13:30, 0.89,4.6
2013-06-28 14:00, 0.88,4.6
2013-06-28 14:30, 0.84,5.3
2013-06-28 15:00, 0.90,6.4
2013-06-28 15:30, 1.02,4.6
2013-06-28 16:00, 1.06,8.0
2013-06-28 16:30, 1.24,8.0
2013-06-28 17:30, 1.28,6.4
2013-06-28 18:00, 1.31,6.4
2013-06-28 18:30, 1.57,8.0
2013-06-28 19:00, 1.54,8.0
2013-06-28 19:30, 1.52,4.6
2013-06-28 20:00, 1.57,6.4
2013-06-28 20:30, 1.68,6.4
2013-06-28 21:00, 2.01,6.4
2013-06-28 21:30, 1.96,6.4
2013-06-28 22:00, 1.72,6.4
2013-06-28 22:30, 2.06,6.4
2013-06-28 23:00, 1.84,6.4
2013-06-28 23:30, 2.24,6.4
2013-06-29 00:00, 2.28,6.4
2013-06-29 00:30, 2.34,8.0
2013-06-29 01:00, 2.18,8.0
2013-06-29 01:30, 2.29,8.0
2013-06-29 02:00, 2.35,8.0
2013-06-29 02:30, 2.18,8.0
2013-06-29 03:00, 2.01,8.0
2013-06-29 03:30, 2.17,8.0
2013-06-29 04:00, 2.44,8.0
2013-06-29 04:30, 2.14,8.0
2013-06-29 05:00, 2.18,8.0
2013-06-29 05:30, 2.48,8.0
2013-06-29 06:00, 2.25,8.0
2013-06-29 06:30, 2.16,8.0
2013-06-29 07:00, 2.09,8.0
2013-06-29 07:30, 2.34,8.0
2013-06-29 08:00, 1.75,8.0
2013-06-29 08:30, 2.10,8.0
2013-06-29 09:00, 2.25,8.0
2013-06-29 09:30, 2.05,8.0
2013-06-29 10:00, 1.72,8.0
2013-06-29 10:30, 2.18,6.4
2013-06-29 11:00, 2.17,10.7
2013-06-29 11:30, 2.10,10.7
2013-06-29 12:00, 2.04,8.0
2013-06-29 12:30, 2.49,8.0
2013-06-29 13:00, 2.48,8.0
2013-06-29 13:30, 2.45,10.7
2013-06-29 14:00, 2.53,8.0
2013-06-29 14:30, 2.42,10.7
2013-06-29 15:00, 2.19,10.7
2013-06-29 15:30, 2.46,8.0
2013-06-29 16:00, 2.41,8.0
2013-06-29 16:30, 2.07,8.0
2013-06-29 17:00, 2.41,10.7
2013-06-29 17:30, 2.58,8.0
2013-06-29 18:00, 2.73,10.7
2013-06-29 18:30, 2.62,10.7
2013-06-29 19:00, 2.49,8.0
2013-06-29 19:30, 2.58,10.7
2013-06-29 20:00, 2.51,8.0
2013-06-29 20:30, 2.17,6.4
2013-06-29 21:00, 2.39,10.7
2013-06-29 21:30, 2.47,10.7
2013-06-29 22:00, 2.17,10.7
2013-06-29 22:30, 2.43,8.0
2013-06-29 23:00, 2.64,8.0
2013-06-29 23:30, 2.49,10.7
2013-06-30 00:00, 2.40,8.0
2013-06-30 00:30, 2.58,10.7
2013-06-30 01:00, 2.83,10.7
2013-06-30 01:30, 2.74,10.7
2013-06-30 02:00, 2.52,10.7
2013-06-30 02:30, 2.41,10.7
2013-06-30 03:00, 2.53,10.7
2013-06-30 03:30, 2.79,10.7
2013-06-30 04:00, 2.84,10.7
2013-06-30 04:30, 2.61,10.7
2013-06-30 05:00, 2.50,10.7
2013-06-30 05:30, 2.62,10.7
2013-06-30 06:00, 2.32,10.7
2013-06-30 06:30, 2.45,10.7
2013-06-30 07:00, 2.30,8.0
2013-06-30 07:30, 2.47,10.7
2013-06-30 08:00, 2.17,10.7
2013-06-30 08:30, 2.28,10.7
2013-06-30 09:00, 2.23,8.0
2013-06-30 09:30, 2.28,10.7
2013-06-30 10:00, 2.19,8.0
2013-06-30 10:30, 1.63,6.4
2013-06-30 11:00, 2.24,10.7
2013-06-30 11:30, 2.17,8.0
2013-06-30 12:00, 2.15,8.0
2013-06-30 12:30, 2.32,8.0
2013-06-30 13:00, 1.98,10.7
2013-06-30 13:30, 2.20,10.7
2013-06-30 14:00, 2.28,10.7
2013-06-30 14:30, 2.25,10.7
2013-06-30 15:00, 2.18,10.7
2013-06-30 15:30, 1.85,10.7
2013-06-30 16:00, 2.41,10.7
2013-06-30 17:00, 2.07,10.7
2013-06-30 17:30, 1.99,10.7
2013-06-30 18:00, 2.29,10.7
2013-06-30 18:30, 1.96,10.7
2013-06-30 19:00, 1.72,8.0
2013-06-30 19:30, 1.75,8.0
2013-06-30 20:00, 1.78,8.0
2013-06-30 20:30, 1.82,8.0
2013-06-30 21:00, 1.65,8.0
2013-06-30 21:30, 1.78,10.7
2013-06-30 22:00, 2.07,10.7
2013-06-30 22:30, 2.11,10.7
2013-06-30 23:00, 2.26,10.7
2013-06-30 23:30, 1.67,8.0
2013-07-01 00:00, 1.95,8.0
2013-07-01 00:30, 2.26,10.7
2013-07-01 01:00, 1.98,8.0
2013-07-01 01:30, 2.12,8.0
2013-07-01 02:00, 2.13,10.7
2013-07-01 02:30, 2.14,10.7
2013-07-01 03:00, 2.04,10.7
2013-07-01 03:30, 2.11,10.7
2013-07-01 04:00, 2.06,8.0
2013-07-01 04:30, 2.24,10.7
2013-07-01 05:00, 2.00,8.0
2013-07-01 05:30, 2.56,10.7
2013-07-01 06:00, 2.20,8.0
2013-07-01 06:30, 2.17,10.7
2013-07-01 07:00, 1.77,10.7
2013-07-01 07:30, 2.06,10.7
2013-07-01 08:00, 1.93,8.0
2013-07-01 08:30, 1.97,8.0
2013-07-01 09:00, 1.57,8.0
2013-07-01 09:30, 1.71,8.0
2013-07-01 10:00, 1.83,10.7
2013-07-01 10:30, 1.79,10.7
2013-07-01 11:00, 1.54,10.7
2013-07-01 11:30, 1.62,10.7
2013-07-01 12:00, 1.56,10.7
2013-07-01 12:30, 1.75,10.7
2013-07-01 13:00, 1.67,8.0
2013-07-01 13:30, 1.55,8.0
2013-07-01 14:00, 1.43,8.0
2013-07-01 14:30, 1.52,8.0
2013-07-01 15:00, 1.55,8.0
2013-07-01 15:30, 1.73,10.7
2013-07-01 16:00, 1.83,8.0
2013-07-01 16:30, 1.69,8.0
2013-07-01 17:00, 1.88,10.7
2013-07-01 17:30, 1.79,8.0
2013-07-01 18:00, 1.63,8.0
2013-07-01 18:30, 1.66,10.7
2013-07-01 19:00, 1.74,8.0
2013-07-01 19:30, 1.78,8.0
2013-07-01 20:00, 1.77,8.0
2013-07-01 20:30, 1.81,8.0
2013-07-01 21:00, 1.64,8.0
2013-07-01 21:30, 1.54,8.0
2013-07-01 22:00, 1.52,8.0
2013-07-01 22:30, 1.47,8.0
2013-07-01 23:00, 1.45,10.7
2013-07-01 23:30, 1.61,8.0
2013-07-02 00:00, 1.23,8.0
2013-07-02 00:30, 1.30,6.4
2013-07-02 01:00, 1.34,8.0
2013-07-02 01:30, 1.38,8.0
2013-07-02 02:00, 1.11,8.0
2013-07-02 02:30, 1.14,8.0
2013-07-02 03:00, 1.25,8.0
2013-07-02 03:30, 1.29,8.0
2013-07-02 04:00, 1.27,8.0
2013-07-02 04:30, 1.35,8.0
2013-07-02 05:00, 1.25,8.0
2013-07-02 05:30, 1.69,8.0
2013-07-02 06:00, 1.45,8.0
2013-07-02 06:30, 1.52,8.0
2013-07-02 07:00, 1.41,8.0
2013-07-02 07:30, 1.61,8.0
2013-07-02 08:00, 1.34,8.0
2013-07-02 08:30, 1.64,8.0
2013-07-02 09:00, 1.34,8.0
2013-07-02 09:30, 1.68,10.7
2013-07-02 10:00, 1.31,8.0
2013-07-02 10:30, 1.28,8.0
2013-07-02 11:00, 1.49,8.0
2013-07-02 11:30, 1.24,8.0
2013-07-02 12:00, 1.43,8.0
2013-07-02 12:30, 1.56,8.0
2013-07-02 13:00, 1.24,8.0
2013-07-02 13:30, 1.36,6.4
2013-07-02 14:00, 1.24,8.0
2013-07-02 14:30, 1.25,8.0
2013-07-02 15:00, 1.29,8.0
2013-07-02 15:30, 1.46,8.0
2013-07-02 16:00, 1.25,8.0
2013-07-02 16:30, 1.21,8.0
2013-07-02 17:00, 1.29,8.0
2013-07-02 17:30, 1.23,8.0
2013-07-02 18:00, 1.10,8.0
2013-07-02 18:30, 1.20,8.0
2013-07-02 19:00, 1.20,8.0
2013-07-02 19:30, 1.31,8.0
2013-07-02 20:00, 1.09,8.0
2013-07-02 20:30, 1.32,8.0
2013-07-02 21:00, 1.34,8.0
2013-07-02 21:30, 1.21,8.0
2013-07-02 22:00, 1.27,8.0
2013-07-02 22:30, 1.15,8.0
2013-07-02 23:00, 1.27,8.0
2013-07-02 23:30, 1.26,8.0
2013-07-03 00:00, 1.14,8.0
2013-07-03 00:30, 1.23,8.0
2013-07-03 01:00, 1.07,8.0
2013-07-03 01:30, 0.93,8.0
2013-07-03 02:00, 1.06,8.0
2013-07-03 02:30, 1.15,8.0
2013-07-03 03:00, 0.91,6.4
2013-07-03 03:30, 1.05,8.0
2013-07-03 04:00, 1.10,8.0
2013-07-03 04:30, 1.14,8.0
2013-07-03 05:00, 0.94,8.0
2013-07-03 05:30, 1.17,8.0
2013-07-03 06:00, 0.98,8.0
2013-07-03 06:30, 1.23,8.0
2013-07-03 07:00, 1.15,8.0
2013-07-03 07:30, 1.09,8.0
2013-07-03 08:00, 0.98,8.0
2013-07-03 08:30, 1.13,8.0
2013-07-03 09:00, 1.05,8.0
2013-07-03 09:30, 1.10,8.0
2013-07-03 10:00, 1.22,8.0
2013-07-03 10:30, 1.05,8.0
2013-07-03 11:00, 1.05,8.0
2013-07-03 11:30, 0.97,6.4
2013-07-03 12:00, 1.03,8.0
2013-07-03 12:30, 0.92,8.0
2013-07-03 13:00, 0.86,8.0
2013-07-03 13:30, 0.97,8.0
2013-07-03 14:00, 0.96,8.0
2013-07-03 14:30, 0.85,8.0
2013-07-03 15:00, 0.79,8.0
2013-07-03 15:30, 0.77,8.0
2013-07-03 16:00, 0.78,8.0
2013-07-03 16:30, 0.80,8.0
2013-07-03 17:00, 0.80,8.0
2013-07-03 17:30, 0.78,8.0
2013-07-03 18:00, 0.76,8.0
2013-07-03 18:30, 0.79,8.0
2013-07-03 19:00, 0.79,8.0
2013-07-03 19:30, 0.69,8.0
2013-07-03 20:00, 0.79,8.0
2013-07-03 20:30, 0.83,8.0
2013-07-03 21:00, 0.83,6.4
2013-07-03 21:30, 0.88,8.0
2013-07-03 22:00, 0.98,8.0
2013-07-03 22:30, 1.07,8.0
2013-07-03 23:00, 0.99,8.0
2013-07-03 23:30, 1.00,8.0
2013-07-04 00:00, 0.99,8.0
2013-07-04 00:30, 1.04,6.4
2013-07-04 01:00, 0.90,5.3
2013-07-04 01:30, 0.95,8.0
2013-07-04 02:00, 0.86,8.0
2013-07-04 02:30, 0.92,5.3
2013-07-04 03:00, 0.81,6.4
2013-07-04 03:30, 0.91,6.4
2013-07-04 04:00, 0.90,6.4
2013-07-04 04:30, 0.81,8.0
2013-07-04 05:00, 0.81,8.0
2013-07-04 05:30, 0.81,8.0
2013-07-04 06:00, 0.88,8.0
2013-07-04 06:30, 0.92,6.4
2013-07-04 07:00, 0.97,6.4
2013-07-04 07:30, 0.98,6.4
2013-07-04 08:00, 0.93,6.4
2013-07-04 08:30, 0.91,6.4
2013-07-04 09:00, 0.90,5.3
2013-07-04 09:30, 0.87,5.3
2013-07-04 10:00, 0.93,6.4
2013-07-04 10:30, 0.97,5.3
2013-07-04 11:00, 0.92,6.4
2013-07-04 11:30, 1.03,6.4
2013-07-04 12:00, 0.99,6.4
2013-07-04 12:30, 1.10,6.4
2013-07-04 13:00, 0.98,6.4
2013-07-04 13:30, 0.90,6.4
2013-07-04 14:00, 1.05,5.3
2013-07-04 14:30, 1.00,6.4
2013-07-04 15:00, 0.97,6.4
2013-07-04 15:30, 0.98,5.3
2013-07-04 16:00, 0.93,6.4
2013-07-04 16:30, 1.05,6.4
2013-07-04 17:00, 0.93,6.4
2013-07-04 17:30, 0.81,5.3
2013-07-04 18:00, 0.87,5.3
2013-07-04 18:30, 0.96,5.3
2013-07-04 19:00, 0.83,5.3
2013-07-04 19:30, 0.82,5.3
2013-07-04 20:00, 0.77,5.3
2013-07-04 20:30, 0.55,5.3
2013-07-04 21:00, 0.66,6.4
2013-07-04 21:30, 0.69,5.3
2013-07-04 22:00, 0.78,5.3
2013-07-04 22:30, 0.73,5.3
2013-07-04 23:00, 0.68,4.6
2013-07-04 23:30, 0.80,5.3
2013-07-05 00:00, 0.73,6.4
2013-07-05 00:30, 0.66,4.6
2013-07-05 01:00, 0.71,5.3
2013-07-05 01:30, 0.68,5.3
2013-07-05 02:00, 0.62,5.3
2013-07-05 02:30, 0.67,5.3
2013-07-05 03:00, 0.66,5.3
2013-07-05 03:30, 0.65,5.3
2013-07-05 04:00, 0.59,5.3
2013-07-05 04:30, 0.60,4.6
2013-07-05 05:00, 0.57,6.4
2013-07-05 05:30, 0.65,5.3
2013-07-05 06:00, 0.65,5.3
2013-07-05 06:30, 0.71,8.0
2013-07-05 07:00, 0.74,8.0
2013-07-05 07:30, 0.77,3.2
2013-07-05 08:00, 0.62,3.6
2013-07-05 08:30, 0.74,4.6
2013-07-05 09:00, 0.76,8.0
2013-07-05 09:30, 0.76,4.0
2013-07-05 10:00, 0.78,4.0
2013-07-05 10:30, 0.87,4.0
2013-07-05 11:00, 0.92,5.3
2013-07-05 11:30, 1.00,5.3
2013-07-05 12:00, 1.00,5.3
2013-07-05 12:30, 1.02,5.3
2013-07-05 13:00, 0.92,5.3
2013-07-05 13:30, 1.02,6.4
2013-07-05 14:00, 0.98,5.3
2013-07-05 14:30, 1.06,6.4
2013-07-05 15:00, 1.08,6.4
2013-07-05 15:30, 1.00,6.4
2013-07-05 16:00, 1.00,6.4
2013-07-05 16:30, 0.97,5.3
2013-07-05 17:30, 0.85,5.3
2013-07-05 18:00, 0.91,5.3
2013-07-05 18:30, 0.80,5.3
2013-07-05 19:00, 0.86,5.3
2013-07-05 19:30, 0.81,5.3
2013-07-05 20:00, 0.74,4.6
2013-07-05 20:30, 0.72,6.4
2013-07-05 21:00, 0.74,5.3
2013-07-05 21:30, 0.59,6.4
2013-07-05 22:00, 0.69,5.3
2013-07-05 22:30, 0.68,5.3
2013-07-05 23:00, 0.66,5.3
2013-07-05 23:30, 0.69,5.3
2013-07-06 00:00, 0.69,5.3
2013-07-06 00:30, 0.64,5.3
2013-07-06 01:00, 0.65,5.3
2013-07-06 01:30, 0.77,5.3
2013-07-06 02:00, 0.68,5.3
2013-07-06 02:30, 0.70,5.3
2013-07-06 03:00, 0.73,4.6
2013-07-06 03:30, 0.73,6.4
2013-07-06 04:00, 0.70,5.3
2013-07-06 04:30, 0.65,5.3
2013-07-06 05:00, 0.68,4.6
2013-07-06 05:30, 0.64,4.6
2013-07-06 06:00, 0.60,5.3
2013-07-06 06:30, 0.59,5.3
2013-07-06 07:00, 0.61,4.0
2013-07-06 07:30, 0.54,5.3
2013-07-06 08:00, 0.54,8.0
2013-07-06 08:30, 0.58,8.0
2013-07-06 09:00, 0.52,4.0
2013-07-06 09:30, 0.53,4.6
2013-07-06 10:00, 0.48,5.3
2013-07-06 10:30, 0.53,4.6
2013-07-06 11:00, 0.48,5.3
2013-07-06 11:30, 0.58,5.3
2013-07-06 12:00, 0.58,5.3
2013-07-06 12:30, 0.61,4.6
2013-07-06 13:00, 0.72,5.3
2013-07-06 13:30, 0.70,5.3
2013-07-06 14:00, 0.75,5.3
2013-07-06 14:30, 0.80,6.4
2013-07-06 15:00, 0.78,5.3
2013-07-06 15:30, 0.73,5.3
2013-07-06 16:00, 0.75,5.3
2013-07-06 16:30, 0.65,5.3
2013-07-06 17:00, 0.73,5.3
2013-07-06 17:30, 0.76,5.3
2013-07-06 18:00, 0.73,5.3
2013-07-06 18:30, 0.69,5.3
2013-07-06 19:00, 0.69,5.3
2013-07-06 19:30, 0.59,4.6
2013-07-06 20:00, 0.66,5.3
2013-07-06 20:30, 0.67,5.3
2013-07-06 21:00, 0.61,5.3
2013-07-06 21:30, 0.65,5.3
2013-07-06 22:00, 0.62,4.6
2013-07-06 22:30, 0.62,5.3
2013-07-06 23:00, 0.57,4.6
2013-07-06 23:30, 0.53,5.3
2013-07-07 00:00, 0.55,5.3
2013-07-07 00:30, 0.61,5.3
2013-07-07 01:00, 0.57,5.3
2013-07-07 01:30, 0.66,5.3
2013-07-07 02:00, 0.57,5.3
2013-07-07 02:30, 0.57,4.6
2013-07-07 03:00, 0.57,4.6
2013-07-07 03:30, 0.64,5.3
2013-07-07 04:00, 0.57,4.6
2013-07-07 04:30, 0.62,4.6
2013-07-07 05:00, 0.65,4.6
2013-07-07 05:30, 0.57,5.3
2013-07-07 06:00, 0.53,5.3
2013-07-07 06:30, 0.62,4.6
2013-07-07 07:00, 0.55,4.6
2013-07-07 07:30, 0.56,8.0
2013-07-07 08:00, 0.57,8.0
2013-07-07 08:30, 0.55,8.0
2013-07-07 09:00, 0.52,6.4
2013-07-07 09:30, 0.50,2.9
2013-07-07 10:00, 0.48,8.0
2013-07-07 10:30, 0.44,8.0
2013-07-07 11:00, 0.49,6.4
2013-07-07 11:30, 0.40,6.4
2013-07-07 12:00, 0.38,5.3
2013-07-07 12:30, 0.43,5.3
2013-07-07 13:00, 0.42,5.3
2013-07-07 13:30, 0.50,6.4
2013-07-07 14:00, 0.50,5.3
2013-07-07 14:30, 0.48,5.3
2013-07-07 15:00, 0.52,5.3
2013-07-07 15:30, 0.51,5.3
2013-07-07 16:00, 0.58,5.3
2013-07-07 16:30, 0.54,5.3
2013-07-07 17:00, 0.56,5.3
2013-07-07 17:30, 0.54,5.3
2013-07-07 18:00, 0.52,5.3
2013-07-07 18:30, 0.51,5.3
2013-07-07 19:00, 0.52,6.4
2013-07-07 19:30, 0.44,4.6
2013-07-07 20:00, 0.51,6.4
2013-07-07 20:30, 0.54,6.4
2013-07-07 21:00, 0.46,2.7
2013-07-07 21:30, 0.45,2.7
2013-07-07 22:00, 0.51,8.0
2013-07-07 22:30, 0.48,6.4
2013-07-07 23:00, 0.46,8.0
2013-07-07 23:30, 0.34,2.9
2013-07-08 00:00, 0.43,6.4
2013-07-08 00:30, 0.43,5.3
2013-07-08 01:00, 0.41,5.3
2013-07-08 01:30, 0.46,6.4
2013-07-08 02:00, 0.45,5.3
2013-07-08 02:30, 0.46,5.3
2013-07-08 03:00, 0.47,2.9
2013-07-08 03:30, 0.46,5.3
2013-07-08 04:00, 0.40,2.9
2013-07-08 04:30, 0.46,5.3
2013-07-08 05:00, 0.45,5.3
2013-07-08 05:30, 0.50,5.3
2013-07-08 06:00, 0.40,6.4
2013-07-08 06:30, 0.45,6.4
2013-07-08 07:00, 0.38,5.3
2013-07-08 07:30, 0.43,6.4
2013-07-08 08:00, 0.41,6.4
2013-07-08 08:30, 0.43,6.4
2013-07-08 09:00, 0.44,5.3
2013-07-08 09:30, 0.41,8.0
2013-07-08 10:00, 0.39,6.4
2013-07-08 10:30, 0.43,6.4
2013-07-08 11:00, 0.43,6.4
2013-07-08 11:30, 0.42,6.4
2013-07-08 12:00, 0.36,6.4
2013-07-08 12:30, 0.42,6.4
2013-07-08 13:00, 0.48,8.0
2013-07-08 13:30, 0.54,6.4
2013-07-08 14:00, 0.63,2.7
2013-07-08 14:30, 0.73,3.2
2013-07-08 15:00, 0.76,3.6
2013-07-08 15:30, 0.80,3.6
2013-07-08 16:00, 0.80,3.6
2013-07-08 16:30, 0.75,4.0
2013-07-08 17:00, 0.76,4.0
2013-07-08 17:30, 0.75,4.0
2013-07-08 18:00, 0.73,4.0
2013-07-08 18:30, 0.59,3.6
2013-07-08 19:00, 0.63,3.6
2013-07-08 19:30, 0.65,3.6
2013-07-08 20:00, 0.57,3.6
2013-07-08 20:30, 0.56,3.6
2013-07-08 21:00, 0.54,3.6
2013-07-08 21:30, 0.56,4.0
2013-07-08 22:00, 0.49,4.0
2013-07-08 22:30, 0.50,6.4
2013-07-08 23:00, 0.43,6.4
2013-07-08 23:30, 0.47,6.4
2013-07-09 00:00, 0.40,6.4
2013-07-09 00:30, 0.44,6.4
2013-07-09 01:00, 0.45,6.4
2013-07-09 01:30, 0.51,4.0
2013-07-09 02:00, 0.43,4.6
2013-07-09 02:30, 0.45,6.4
2013-07-09 03:00, 0.47,5.3
2013-07-09 03:30, 0.46,3.6
2013-07-09 04:00, 0.68,10.7
2013-07-09 04:30, 0.56,6.4
2013-07-09 05:00, 0.52,5.3
2013-07-09 05:30, 0.55,5.3
2013-07-09 06:00, 0.62,5.3
2013-07-09 06:30, 0.59,6.4
2013-07-09 07:00, 0.59,6.4
2013-07-09 07:30, 0.64,6.4
2013-07-09 08:00, 0.61,6.4
2013-07-09 08:30, 0.58,6.4
2013-07-09 09:00, 0.58,6.4
2013-07-09 09:30, 0.52,6.4
2013-07-09 10:00, 0.56,6.4
2013-07-09 10:30, 0.48,6.4
2013-07-09 11:00, 0.54,6.4
2013-07-09 11:30, 0.44,6.4
2013-07-09 12:00, 0.62,16.0
2013-07-09 12:30, 0.46,6.4
2013-07-09 13:00, 0.50,6.4
2013-07-09 13:30, 0.48,5.3
2013-07-09 14:00, 0.54,6.4
2013-07-09 14:30, 0.54,6.4
2013-07-09 15:00, 0.71,6.4
2013-07-09 15:30, 0.61,6.4
2013-07-09 16:00, 0.76,6.4
2013-07-09 16:30, 0.60,6.4
2013-07-09 17:00, 0.66,6.4
2013-07-09 17:30, 0.74,6.4
2013-07-09 18:00, 0.68,6.4
2013-07-09 18:30, 0.66,6.4
2013-07-09 19:00, 0.73,6.4
2013-07-09 19:30, 0.61,6.4
2013-07-09 20:00, 0.68,6.4
2013-07-09 20:30, 0.66,3.6
2013-07-09 21:00, 0.77,6.4
2013-07-09 21:30, 0.80,3.6
2013-07-09 22:00, 0.83,3.6
2013-07-09 22:30, 0.84,4.0
2013-07-09 23:00, 0.82,3.6
2013-07-09 23:30, 0.76,4.0
2013-07-10 00:00, 0.81,4.0
2013-07-10 00:30, 0.88,4.6
2013-07-10 01:00, 0.82,4.6
2013-07-10 01:30, 0.95,4.6
2013-07-10 02:00, 0.89,4.6
2013-07-10 02:30, 0.86,4.6
2013-07-10 03:00, 0.87,4.6
2013-07-10 03:30, 0.86,3.6
2013-07-10 04:00, 0.84,4.6
2013-07-10 04:30, 0.81,4.6
2013-07-10 05:00, 0.76,4.0
2013-07-10 05:30, 0.76,4.6
2013-07-10 06:00, 0.64,4.6
2013-07-10 06:30, 0.65,4.6
2013-07-10 07:00, 0.59,4.6
2013-07-10 07:30, 0.63,6.4
2013-07-10 08:00, 0.54,4.6
2013-07-10 08:30, 0.60,6.4
2013-07-10 09:00, 0.53,4.6
2013-07-10 09:30, 0.58,6.4
2013-07-10 10:00, 0.51,6.4
2013-07-10 10:30, 0.41,6.4
2013-07-10 11:00, 0.49,4.0
2013-07-10 11:30, 0.48,6.4
2013-07-10 12:00, 0.45,6.4
2013-07-10 12:30, 0.49,6.4
2013-07-10 13:00, 0.47,6.4
2013-07-10 13:30, 0.50,6.4
2013-07-10 14:00, 0.47,6.4
2013-07-10 14:30, 0.52,6.4
2013-07-10 15:00, 0.51,5.3
2013-07-10 15:30, 0.55,5.3
2013-07-10 16:00, 0.53,5.3
2013-07-10 16:30, 0.60,6.4
2013-07-10 17:00, 0.62,6.4
2013-07-10 17:30, 0.61,6.4
2013-07-10 18:00, 0.55,6.4
2013-07-10 18:30, 0.47,6.4
2013-07-10 19:00, 0.55,6.4
2013-07-10 19:30, 0.54,6.4
2013-07-10 20:00, 0.50,6.4
2013-07-10 20:30, 0.46,6.4
2013-07-10 21:00, 0.55,6.4
2013-07-10 21:30, 0.55,6.4
2013-07-10 22:00, 0.49,6.4
2013-07-10 22:30, 0.52,6.4
2013-07-10 23:00, 0.53,6.4
2013-07-10 23:30, 0.56,5.3
2013-07-11 00:00, 0.53,6.4
2013-07-11 00:30, 0.59,3.2
2013-07-11 01:00, 0.61,3.2
2013-07-11 01:30, 0.67,3.2
2013-07-11 02:00, 0.57,2.9
2013-07-11 02:30, 0.80,3.2
2013-07-11 03:00, 0.83,3.6
2013-07-11 03:30, 0.82,4.0
2013-07-11 04:00, 0.75,4.0
2013-07-11 04:30, 0.97,4.0
2013-07-11 05:00, 0.90,4.0
2013-07-11 05:30, 0.99,4.0
2013-07-11 06:00, 0.88,4.0
2013-07-11 06:30, 0.87,4.6
2013-07-11 07:00, 0.91,4.6
2013-07-11 07:30, 0.90,4.0
2013-07-11 08:00, 0.80,4.6
2013-07-11 08:30, 0.81,4.6
2013-07-11 09:00, 0.97,4.6
2013-07-11 09:30, 0.87,5.3
2013-07-11 10:00, 0.89,4.6
2013-07-11 10:30, 0.92,5.3
2013-07-11 11:00, 0.90,5.3
2013-07-11 11:30, 1.00,5.3
2013-07-11 12:00, 0.99,5.3
2013-07-11 12:30, 0.94,5.3
2013-07-11 13:00, 0.98,5.3
2013-07-11 13:30, 1.08,6.4
2013-07-11 14:00, 0.95,6.4
2013-07-11 14:30, 0.99,5.3
2013-07-11 15:00,,6.4
2013-07-11 15:30, 1.08,5.3